Flag for U.S.A. Weather past 2 weeks in Sunrise Manor, Nevada, U.S.A.

Now
50 °F

Clear.


Feels Like: 49 °F
Forecast: 41 / 64 °F
Wind: 3 mph from Southeast

Location: Nellis Air Force Base

Current Time: Feb 1, 2015 at 2:37:38 AM

Latest Report: Feb 1, 2015 at 1:58 AM


Visibility: 10 mi

Pressure: 30.06 "Hg

Humidity: 60%

Dew point: 37 °F

Location of Sunrise ManorLocation

Historic Weather in Sunrise Manor — Graph

°F

Sunrise Manor temperature yesterday

Maximum temperature yesterday: 64 °F (at 2:58 PM)
Minimum temperature yesterday: 49 °F (at 3:58 AM)
Average temperature yesterday: 54 °F

Past Weeks' High & Low Weather Summary

 TemperatureHumidityPressure
High74 °F (Jan 25, 2:58 PM)100% (Jan 27, 1:58 AM)30.40 "Hg (Jan 27, 1:58 AM)
Low32 °F (Jan 23, 6:58 AM)11% (Jan 22, 2:58 PM)29.83 "Hg (Jan 30, 3:58 PM)
Average53 °F53%30.16 "Hg
* Reported Jan 17 12:58 AM — Feb 1 12:58 AM, Sunrise Manor, Weather by CustomWeather, © 2014

Note: Actual official high and low records may vary slightly from our data, if they occured in-between our weather recording intervals... More about our weather records

Advertising

Sunrise Manor weather history for previous 24 hours

 ConditionsComfort  
Time TempWeatherWind HumidityBarometerVisibility
12:58 AM
Feb 1
49 °FClear.6 mph69%30.06 "Hg10 mi
11:58 PM
Jan 31
52 °FClear.5 mph59%30.05 "Hg10 mi
10:58 PM50 °FClear.6 mph73%30.04 "Hg10 mi
9:58 PM49 °FClear.10 mph81%30.03 "Hg10 mi
8:58 PM52 °FClear.7 mph72%30.02 "Hg10 mi
7:58 PM54 °FClear.7 mph71%29.98 "Hg10 mi
6:58 PM54 °FClear.9 mph74%29.98 "Hg10 mi
5:58 PM57 °FClear.2 mph66%29.93 "Hg10 mi
4:58 PM62 °FSunny.5 mph52%29.90 "Hg10 mi
3:58 PM64 °FSunny.12 mph44%29.89 "Hg10 mi
2:58 PM64 °FSunny.15 mph45%29.91 "Hg10 mi
1:58 PM64 °FSunny.13 mph44%29.90 "Hg10 mi
12:58 PM63 °FScattered clouds.16 mph46%29.89 "Hg10 mi
11:58 AM62 °FSunny.5 mph47%29.91 "Hg10 mi
10:58 AM59 °FSunny.5 mph55%29.93 "Hg10 mi
9:58 AM55 °FMostly cloudy.2 mph68%29.95 "Hg10 mi
8:58 AM53 °FOvercast.2 mph85%29.93 "Hg10 mi
7:58 AM51 °FMostly cloudy.2 mph91%29.90 "Hg10 mi
7:03 AM50 °FOvercast.1 mph94%29.90 "Hg10 mi
6:58 AM50 °FOvercast.1 mph95%29.89 "Hg10 mi
6:03 AM50 °FOvercast.No wind100%29.88 "Hg10 mi
5:58 AM50 °FOvercast.2 mph100%29.88 "Hg10 mi
4:58 AM49 °FMostly cloudy.No wind100%29.86 "Hg10 mi
3:58 AM49 °FMostly cloudy.1 mph100%29.85 "Hg10 mi
2:58 AM49 °FLight rain. Overcast.2 mph100%29.85 "Hg10 mi
Weather by CustomWeather, © 2014

See weather overviewHow to use our weather pages